Find Starlink 37981

NORAD ID: 100282 Int'l Des: 2026-183 Owner: SPXS Country: US Constellation: starlink operational

現在のビュー

3D地球を読み込み中...

About Starlink 37981

Starlink 37981 (NORAD 100282) is a starlink constellation satellite launched Aug 11, 2026 by SPXS of US. with a mass of 575.00 kg.

次回通過

Passes for default location (London). Set your location on the main map for personalized predictions.

高度履歴

Loading altitude history...

軌道要素

1 A0282U 26183L 26255.66125648 -.00359017 00000-0 -25590-2 0 9990
2 A0282 53.1576 295.9417 0001406 34.4553 325.6558 15.74131470 5072
Epoch: Sep 12, 2026 • Age: 191 hours

現在のステータス

高度 365.1 km
遠地点 / 近地点 N/A
速度 7.69 km/s
衛星直下点 -8.92°S, 31.04°E
打ち上げ日 Aug 11, 2026
運用期間 0.1 years
タイプ internet

技術仕様

分類 Payload
質量 575.00 kg
乾燥質量 530.00 kg
長さ 0.30 m
スパン 29.00 m
形状 ? Box + pan
製造者 SPXS
バスタイプ Starlink V2MO
フェーズステータス In Orbit
所有者/国 SPXS/US

Most Searched